{"data":{"norad_id":63374,"intl_designator":"2025-063M","name":"STARLINK-33618","alt_names":[],"object_type":"PAYLOAD","status":"ACTIVE","operator":null,"country":"US","launch_date":"2025-03-26","launch_site_code":"AFWTR","launch_vehicle":null,"mission":null,"orbit_class":"UNKNOWN","rcs_meters":null,"size_class":null,"mass_kg":null,"dimensions":null,"purposes":["comms"],"wikipedia_slug":null,"has_3d_model":false,"image_url":null,"decayed_at":null,"tle_current":{"epoch":"2026-05-25T04:00:03.998880Z","epoch_age_seconds":57337,"freshness":"FRESH","line1":"1 63374U 25063M   26145.16671295  .00068578  00000+0  20774-2 0  9999","line2":"2 63374  53.1609  54.5648 0001713  81.2964   2.6671 15.33549733  5867","mean_motion":15.33549733,"eccentricity":0.0001713,"inclination_deg":53.1609,"raan_deg":54.5648,"arg_perigee_deg":81.2964,"mean_anomaly_deg":2.6671,"bstar":0.0020774,"rev_number":586,"period_min":93.89979138029,"perigee_km":464.05931145283,"apogee_km":466.40384952851,"semimajor_km":6843.3685804907,"source":"CELESTRAK","updated_at":"2026-05-25T13:38:19.963748Z"}}}